Location: Newark
(44.3248°N, 23.7839°E)
Time: 06:04:12
(UTC+00:00)

FO-29 - Pass Details

Date: 02 May 2024
Orbit: 801 x 1320 km, 98.6° (Epoch: 28 May)

Event Time Altitude Azimuth Distance (km) Brightness Sun altitude
Rises 00:03:16 0° 15° (NNE) 4,286 14.1 -25.9°
Reaches altitude 10° 00:05:59 10° 17° (NNE) 3,339 13.3 -25.7°
Maximum altitude 00:13:51 72° 102° (ESE) 1,380 10.2 -25.0°
Enters shadow 00:17:13 38° 176° (S) 1,893 10.5 -24.7°
